• In Uzbekistan
  • List of Countries
  • For 7 days
  • Water Temperature
  • Satellite Maps
  • Weather Map
  • Weather Widgets
  • user-avatar
    Login

    Hourly Weather Nikitinichi

    Today, 23 April, Tuesday

    Time Temperature Precipitation Wind Pressure Humidity
    00:00 +10°C° 0 mm 1 mps 755 mmHg 50%
    01:00 +10°C° 0 mm 1 mps 756 mmHg 52%
    02:00 +9°C° 0 mm 1 mps 755 mmHg 53%
    03:00 +9°C° 0 mm 1 mps 756 mmHg 55%
    04:00 +8°C° 0 mm 1 mps 756 mmHg 56%
    05:00 +8°C° 0 mm 1 mps 756 mmHg 58%
    06:00 +9°C° 0 mm 2 mps 756 mmHg 55%
    07:00 +12°C° 0 mm 2 mps 756 mmHg 52%
    08:00 +14°C° 0 mm 2 mps 756 mmHg 49%
    09:00 +15°C° 0 mm 2 mps 756 mmHg 45%
    10:00 +17°C° 0 mm 2 mps 756 mmHg 41%
    11:00 +18°C° 0 mm 2 mps 756 mmHg 37%
    12:00 +19°C° 0 mm 2 mps 756 mmHg 35%
    13:00 +19°C° 0 mm 2 mps 756 mmHg 33%
    14:00 +20°C° 0 mm 2 mps 756 mmHg 31%
    15:00 +19°C° 0 mm 2 mps 756 mmHg 33%
    16:00 +19°C° 0 mm 2 mps 755 mmHg 35%
    17:00 +19°C° 0 mm 2 mps 755 mmHg 37%
    18:00 +17°C° 0 mm 2 mps 755 mmHg 41%
    19:00 +15°C° 0 mm 2 mps 755 mmHg 45%
    20:00 +14°C° 0 mm 2 mps 755 mmHg 49%
    21:00 +13°C° 0 mm 2 mps 755 mmHg 50%
    22:00 +12°C° 0 mm 1 mps 755 mmHg 51%
    23:00 +12°C° 0 mm 1 mps 755 mmHg 53%

    Tomorrow, 24 April, Wednesday

    Time Temperature Precipitation Wind Pressure Humidity
    00:00 +11°C° 0 mm 1 mps 756 mmHg 54%
    01:00 +11°C° 0 mm 1 mps 756 mmHg 56%
    02:00 +11°C° 0 mm 1 mps 756 mmHg 57%
    03:00 +10°C° 0 mm 1 mps 756 mmHg 59%
    04:00 +10°C° 0 mm 1 mps 756 mmHg 60%
    05:00 +9°C° 0 mm 1 mps 756 mmHg 62%
    06:00 +11°C° 0 mm 1 mps 756 mmHg 58%
    07:00 +13°C° 0 mm 1 mps 756 mmHg 54%
    08:00 +15°C° 0 mm 2 mps 756 mmHg 50%
    09:00 +16°C° 0 mm 2 mps 756 mmHg 45%
    10:00 +18°C° 0 mm 2 mps 756 mmHg 40%
    11:00 +19°C° 0 mm 3 mps 756 mmHg 36%
    12:00 +20°C° 0 mm 3 mps 756 mmHg 34%
    13:00 +20°C° 0 mm 3 mps 756 mmHg 33%
    14:00 +21°C° 0 mm 3 mps 755 mmHg 32%
    15:00 +21°C° 0 mm 3 mps 755 mmHg 34%
    16:00 +21°C° 0 mm 3 mps 755 mmHg 36%
    17:00 +20°C° 0 mm 3 mps 755 mmHg 38%
    18:00 +18°C° 0 mm 2 mps 755 mmHg 42%
    19:00 +16°C° 0 mm 2 mps 755 mmHg 46%
    20:00 +15°C° 0 mm 2 mps 754 mmHg 50%
    21:00 +14°C° 0 mm 2 mps 755 mmHg 51%
    22:00 +13°C° 0 mm 2 mps 755 mmHg 53%
    23:00 +13°C° 0 mm 2 mps 755 mmHg 54%

    Day after tomorrow, 25 April, Thursday

    Time Temperature Precipitation Wind Pressure Humidity
    00:00 +12°C° 0 mm 2 mps 755 mmHg 56%
    01:00 +12°C° 0 mm 1 mps 755 mmHg 57%
    02:00 +11°C° 0 mm 1 mps 755 mmHg 58%
    03:00 +11°C° 0 mm 1 mps 755 mmHg 60%
    04:00 +11°C° 0 mm 1 mps 755 mmHg 61%
    05:00 +10°C° 0 mm 1 mps 755 mmHg 62%
    06:00 +12°C° 0 mm 1 mps 755 mmHg 58%
    07:00 +14°C° 0 mm 2 mps 755 mmHg 54%
    08:00 +16°C° 0 mm 2 mps 755 mmHg 51%
    09:00 +17°C° 0 mm 3 mps 755 mmHg 46%
    10:00 +19°C° 0 mm 3 mps 755 mmHg 41%
    11:00 +20°C° 0 mm 4 mps 755 mmHg 37%
    12:00 +21°C° 0 mm 4 mps 754 mmHg 36%
    13:00 +21°C° 0 mm 4 mps 754 mmHg 35%
    14:00 +22°C° 0 mm 4 mps 753 mmHg 35%
    15:00 +21°C° 0 mm 4 mps 753 mmHg 36%
    16:00 +21°C° 0 mm 3 mps 753 mmHg 38%
    17:00 +21°C° 0 mm 3 mps 753 mmHg 40%
    18:00 +19°C° 0 mm 3 mps 753 mmHg 44%
    19:00 +17°C° 0 mm 2 mps 752 mmHg 48%
    20:00 +15°C° 0 mm 2 mps 752 mmHg 53%
    21:00 +15°C° 0 mm 2 mps 752 mmHg 55%
    22:00 +14°C° 0 mm 2 mps 752 mmHg 57%
    23:00 +13°C° 0 mm 2 mps 752 mmHg 60%

    26 April, Friday

    Time Temperature Precipitation Wind Pressure Humidity
    00:00 +13°C° 0 mm 2 mps 752 mmHg 61%
    01:00 +12°C° 0 mm 2 mps 752 mmHg 63%
    02:00 +12°C° 0 mm 2 mps 752 mmHg 65%
    03:00 +10°C° 0 mm 2 mps 752 mmHg 66%
    04:00 +10°C° 0 mm 2 mps 752 mmHg 67%
    05:00 +10°C° 0 mm 2 mps 752 mmHg 68%
    06:00 +13°C° 0 mm 2 mps 752 mmHg 64%
    07:00 +13°C° 0 mm 3 mps 751 mmHg 60%
    08:00 +16°C° 0 mm 3 mps 751 mmHg 56%
    09:00 +18°C° 0 mm 4 mps 751 mmHg 50%
    10:00 +19°C° 0 mm 5 mps 751 mmHg 45%
    11:00 +21°C° 0 mm 6 mps 751 mmHg 40%
    12:00 +21°C° 0 mm 6 mps 750 mmHg 39%
    13:00 +22°C° 0 mm 6 mps 750 mmHg 38%
    14:00 +22°C° 0 mm 6 mps 749 mmHg 37%
    15:00 +22°C° 0 mm 5 mps 749 mmHg 39%
    16:00 +22°C° 0 mm 5 mps 749 mmHg 41%
    17:00 +21°C° 0 mm 4 mps 748 mmHg 43%
    18:00 +20°C° 0 mm 4 mps 748 mmHg 49%
    19:00 +18°C° 0 mm 4 mps 748 mmHg 54%
    20:00 +16°C° 0 mm 3 mps 748 mmHg 59%
    21:00 +14°C° 0 mm 3 mps 748 mmHg 61%
    22:00 +14°C° 0 mm 4 mps 747 mmHg 63%
    23:00 +13°C° 0 mm 4 mps 747 mmHg 66%

    27 April, Saturday

    Time Temperature Precipitation Wind Pressure Humidity
    00:00 +12°C° 0 mm 4 mps 747 mmHg 67%
    01:00 +12°C° 0 mm 4 mps 747 mmHg 67%
    02:00 +12°C° 0 mm 4 mps 746 mmHg 68%
    03:00 +11°C° 0 mm 4 mps 746 mmHg 68%
    04:00 +11°C° 0 mm 4 mps 745 mmHg 69%
    05:00 +11°C° 0 mm 4 mps 745 mmHg 69%
    06:00 +12°C° 0 mm 5 mps 745 mmHg 66%
    07:00 +13°C° 0 mm 5 mps 745 mmHg 63%
    08:00 +14°C° 0 mm 6 mps 744 mmHg 60%
    09:00 +16°C° 0 mm 6 mps 744 mmHg 59%
    10:00 +17°C° 0 mm 7 mps 744 mmHg 58%
    11:00 +18°C° 0 mm 7 mps 744 mmHg 58%
    12:00 +18°C° 0.1 mm 7 mps 744 mmHg 58%
    13:00 +18°C° 0.1 mm 7 mps 743 mmHg 58%
    14:00 +18°C° 0.1 mm 8 mps 743 mmHg 58%
    15:00 +18°C° 0 mm 7 mps 743 mmHg 61%
    16:00 +17°C° 0 mm 6 mps 742 mmHg 64%
    17:00 +17°C° 0 mm 5 mps 742 mmHg 67%
    18:00 +17°C° 0.2 mm 4 mps 741 mmHg 71%
    19:00 +16°C° 0.2 mm 3 mps 741 mmHg 75%
    20:00 +14°C° 0.2 mm 3 mps 741 mmHg 79%
    21:00 +14°C° 0.4 mm 3 mps 741 mmHg 83%
    22:00 +14°C° 0.4 mm 3 mps 741 mmHg 87%
    23:00 +14°C° 0.4 mm 3 mps 741 mmHg 91%

    28 April, Sunday

    Time Temperature Precipitation Wind Pressure Humidity
    00:00 +13°C° 0 mm 3 mps 740 mmHg 92%
    01:00 +14°C° 0 mm 2 mps 740 mmHg 93%
    02:00 +14°C° 0 mm 2 mps 740 mmHg 94%
    03:00 +14°C° 0 mm 2 mps 740 mmHg 95%
    04:00 +14°C° 0 mm 2 mps 740 mmHg 95%
    05:00 +13°C° 0 mm 2 mps 740 mmHg 95%
    06:00 +14°C° 0 mm 3 mps 740 mmHg 91%
    07:00 +16°C° 0 mm 3 mps 740 mmHg 86%
    08:00 +17°C° 0 mm 3 mps 740 mmHg 81%
    09:00 +17°C° 0 mm 4 mps 740 mmHg 80%
    10:00 +17°C° 0 mm 4 mps 740 mmHg 79%
    11:00 +17°C° 0 mm 4 mps 740 mmHg 78%
    12:00 +17°C° 0 mm 4 mps 740 mmHg 76%
    13:00 +17°C° 0 mm 4 mps 740 mmHg 74%
    14:00 +17°C° 0 mm 4 mps 741 mmHg 72%
    15:00 +17°C° 0 mm 4 mps 741 mmHg 72%
    16:00 +16°C° 0 mm 3 mps 741 mmHg 71%
    17:00 +16°C° 0 mm 3 mps 741 mmHg 71%
    18:00 +14°C° 0 mm 3 mps 741 mmHg 75%
    19:00 +13°C° 0 mm 3 mps 741 mmHg 78%
    20:00 +12°C° 0 mm 3 mps 741 mmHg 81%
    21:00 +12°C° 0 mm 2 mps 742 mmHg 84%
    22:00 +10°C° 0 mm 2 mps 742 mmHg 87%
    23:00 +9°C° 0 mm 2 mps 742 mmHg 89%
    Show more